NUSANTARA SATU

Last updated on Wed Nov 20 2024 00:02:42 GMT+0000 (Coordinated Universal Time)

1 44048U 19009A 24323.89479814 -.00000232 00000+0 00000+0 0 9999 2 44048 0.0435 123.0476 0003055 55.6402 347.8835 1.00269450 21000
UTC large
Height (km)
Speed (km/s)
/
Latitude / Longitude
Inclination (degrees)
Orbital Period (minutes)
Azimuth
Elevation
Range (km)
Doppler Factor

Next 0 passes for location: London (51.5072 / 0.1276)

Sorry there are no passes over London.